TimeAKST,TemperatureF,Dew PointF,Humidity,Sea Level PressureIn,VisibilityMPH,Wind Direction,Wind SpeedMPH,Gust SpeedMPH,PrecipitationIn,Events,Conditions,WindDirDegrees,DateUTC
12:53 AM,-38.9,-9999,N/A,30.61,5.0,Calm,Calm,-,N/A,,Scattered Clouds,0,2012-12-20 09:53:00
1:53 AM,-40.0,-9999,N/A,30.63,5.0,Calm,Calm,-,N/A,,Scattered Clouds,0,2012-12-20 10:53:00
3:28 AM,-41.8,-9999,N/A,30.58,5.0,Calm,Calm,-,N/A,,Mostly Cloudy,0,2012-12-20 12:28:00
3:53 AM,-42.0,-9999,N/A,30.66,5.0,Calm,Calm,-,N/A,,Scattered Clouds,0,2012-12-20 12:53:00
4:53 AM,-41.1,-9999,N/A,30.66,3.0,Calm,Calm,-,N/A,,Mostly Cloudy,0,2012-12-20 13:53:00
5:53 AM,-43.1,-9999,N/A,30.67,3.0,Calm,Calm,-,N/A,,Mostly Cloudy,0,2012-12-20 14:53:00
6:53 AM,-42.0,-9999,N/A,30.68,1.5,Calm,Calm,-,N/A,,Mostly Cloudy,0,2012-12-20 15:53:00
7:53 AM,-43.1,-9999,N/A,30.70,1.2,Calm,Calm,-,N/A,,Mostly Cloudy,0,2012-12-20 16:53:00
8:43 AM,-41.8,-9999,N/A,30.64,0.8,Calm,Calm,-,N/A,,Overcast,0,2012-12-20 17:43:00
8:53 AM,-44.0,-9999,N/A,30.73,0.8,Calm,Calm,-,N/A,,Mist,0,2012-12-20 17:53:00
9:53 AM,-43.1,-9999,N/A,30.74,0.8,Calm,Calm,-,N/A,,Mostly Cloudy,0,2012-12-20 18:53:00
10:44 AM,-43.6,-9999,N/A,30.66,0.5,Calm,Calm,-,N/A,Fog,Light Freezing Fog,0,2012-12-20 19:44:00
10:53 AM,-44.0,-9999,N/A,30.75,0.5,Calm,Calm,-,N/A,Fog,Light Freezing Fog,0,2012-12-20 19:53:00
11:04 AM,-43.6,-9999,N/A,30.66,0.8,Calm,Calm,-,N/A,,Scattered Clouds,0,2012-12-20 20:04:00
11:53 AM,-42.0,-9999,N/A,30.76,0.5,NNE,3.5,-,N/A,Fog,Light Freezing Fog,20,2012-12-20 20:53:00
12:14 PM,-43.6,-9999,N/A,30.68,0.5,Calm,Calm,-,N/A,Fog,Light Freezing Fog,0,2012-12-20 21:14:00
12:26 PM,-41.8,-9999,N/A,30.69,0.5,Calm,Calm,-,N/A,Fog,Light Freezing Fog,0,2012-12-20 21:26:00
12:53 PM,-40.0,-9999,N/A,30.77,0.5,Calm,Calm,-,N/A,Fog,Light Freezing Fog,0,2012-12-20 21:53:00
1:53 PM,-42.0,-9999,N/A,30.76,0.5,Calm,Calm,-,N/A,Fog,Light Freezing Fog,0,2012-12-20 22:53:00
2:53 PM,-42.0,-9999,N/A,30.77,0.5,Calm,Calm,-,N/A,Fog,Light Freezing Fog,0,2012-12-20 23:53:00
3:53 PM,-41.1,-9999,N/A,30.77,0.5,Calm,Calm,-,N/A,Fog,Light Freezing Fog,0,2012-12-21 00:53:00
4:53 PM,-42.0,-9999,N/A,30.77,0.5,Calm,Calm,-,N/A,Fog,Light Freezing Fog,0,2012-12-21 01:53:00
5:53 PM,-43.1,-9999,N/A,30.76,0.5,Calm,Calm,-,N/A,Fog,Light Freezing Fog,0,2012-12-21 02:53:00
6:53 PM,-45.0,-9999,N/A,30.76,0.2,Calm,Calm,-,N/A,Fog,Light Freezing Fog,0,2012-12-21 03:53:00
7:53 PM,-44.0,-9999,N/A,30.76,0.2,Calm,Calm,-,N/A,Fog,Light Freezing Fog,0,2012-12-21 04:53:00
8:53 PM,-45.0,-9999,N/A,30.76,0.2,Calm,Calm,-,N/A,Fog,Light Freezing Fog,0,2012-12-21 05:53:00
9:53 PM,-44.0,-9999,N/A,30.75,0.2,Calm,Calm,-,N/A,Fog,Light Freezing Fog,0,2012-12-21 06:53:00
10:24 PM,-43.6,-9999,N/A,30.66,0.5,Calm,Calm,-,N/A,Fog,Light Freezing Fog,0,2012-12-21 07:24:00
10:32 PM,-43.6,-9999,N/A,30.67,0.2,Calm,Calm,-,N/A,Fog,Light Freezing Fog,0,2012-12-21 07:32:00
10:53 PM,-43.1,-9999,N/A,30.75,0.2,Calm,Calm,-,N/A,Fog,Light Freezing Fog,0,2012-12-21 07:53:00
11:53 PM,-44.0,-9999,N/A,30.74,0.2,Calm,Calm,-,N/A,Fog,Light Freezing Fog,0,2012-12-21 08:53:00